Regional Weather Roundup
Issued by NWS Green Bay, WI

Home | Current Version | Previous Version | Graphics & Text | Print | Product List | Glossary Off
Versions: 1 2 3 4 5 6 7 8 9 10 11 12 13 14 15 16 17 18 19 20 21 22 23 24 25 26 27 28 29 30 31 32 33 34 35 36 37 38 39 40 41 42 43 44 45 46 47 48 49 50

000
ASUS43 KGRB 181510
RWRGRB

NORTH-CENTRAL AND NORTHEAST WISCONSIN REGIONAL WEATHER ROUNDUP
NATIONAL WEATHER SERVICE GREEN BAY WI
1000 AM CDT FRI APR 18 2014

WIZ005-009-010>012-018-019-181600-
NORTH CENTRAL WISCONSIN

CITY           SKY/WX    TMP DP  RH WIND       PRES   REMARKS
IRONWOOD       CLOUDY    30  23  74 NW5       30.35S
MANITOWISH WTR NOT AVBL
ARBOR VITAE    CLOUDY    37  27  67 N7        30.36R
EAGLE RIVER    CLOUDY    32  22  68 N7        30.34S
LAND O LAKES   NOT AVBL
RHINELANDER    SUNNY     32  23  69 N6        30.36R
PHILLIPS       MOSUNNY   32  23  70 N5        30.37S
ANTIGO         MOSUNNY   34  24  66 NW7       30.35S
TOMAHAWK       SUNNY     34  23  64 CALM      30.37R
MERRILL        SUNNY     35  24  62 CALM      30.37S
$$

WIZ013-073-181600-
NORTHEAST WISCONSIN

CITY           SKY/WX    TMP DP  RH WIND       PRES   REMARKS
IRON MOUNTAIN  CLOUDY    34  24  67 NW6       30.34R
MARINETTE      CLOUDY    36  25  64 NW6       30.36S
OCONTO         CLOUDY    35  25  65 NW3       30.38R
$$

WIZ017-030-035>037-045-181600-
CENTRAL WISCONSIN

CITY           SKY/WX    TMP DP  RH WIND       PRES   REMARKS
MEDFORD        SUNNY     34  25  69 NW6       30.37S
WAUSAU         MOSUNNY   36  24  62 NW9       30.36R
MOSINEE        SUNNY     36  28  75 NW6       30.38R
MARSHFIELD     MOSUNNY   38  26  62 N9        30.37S
WISC RAPIDS    SUNNY     40  24  53 VRB7      30.39S
STEVENS POINT  SUNNY     37  24  59 N7        30.38S
WAUPACA        SUNNY     43  25  49 N5        30.39R
SHAWANO        PTSUNNY   39  26  58 CALM      30.38R
CLINTONVILLE   MOSUNNY   37  27  65 NW3       30.38R
$$

WIZ038-039-048-051-181600-
FOX VALLEY

CITY           SKY/WX    TMP DP  RH WIND       PRES   REMARKS
NWS GREEN BAY  NOT AVBL
APPLETON       PTSUNNY   39  27  60 N7        30.37R
OSHKOSH        MOSUNNY   39  27  62 VRB5      30.38R
FOND DU LAC    CLOUDY    38  27  64 NW8       30.38R
$$

WIZ022-050-052-181600-
EAST CENTRAL WISCONSIN

CITY           SKY/WX    TMP DP  RH WIND       PRES   REMARKS
STURGEON BAY   CLOUDY    36  23  60 NW12      30.38R
MANITOWOC      CLOUDY    38  28  67 VRB6      30.38R
SHEBOYGAN      CLOUDY    39  30  70 NE6       30.37R
$$

LMZ563-521-522-541>543-181600-
LAKESHORE

STATION/POSITION TIME  TEMP    WIND        PRES    VSBY  WAVE
                       AIR SEA DIR/SP/G                  HT/PER
                 (UTC) (F)     (DEG/KT/KT) (MB)    (MI)  (FT/S)
SHEBOYGAN LKSHOR 1500   37      40/  9/ 10 1029.3R
KEWAUNEE LKSHORE 1500   36     320/  6/  8 1029.0R
NORTHPORT PIER   1500   35     310/  5/  7 1028.1S
SISTER BAY LKSHO 1500   38     310/  7/  7   N/A
STURGEON BAY CG  1500   37     310/  6     1028.0      6
MENOMINEE LKSHOR 1500   36     300/  6/ 11 1028.8S
$$



USA.gov is the U.S. government's official web portal to all federal, state and local government web resources and services.